This demonstration page uses our WeatherBlox Daily Observations layout. Learn more.

Left ArrowRight Arrow

38.20091, -84.87328

Hourly Observations for November 30, 2022

Temp ( °F °C ) Dew Point ( °F °C ) Humidity (%) Winds ( mph kmh ) Pressure ( in mb ) Visibility ( mi km ) Precip ( " mm )
12:10 am 00:10 Cloudy with Nearby Thunderstorms 57 13.9 54 12.2 89 89 S 13 20 29.71 1006 8 13 0.06 1.52
12:21 am 00:21 Cloudy with Light Rain 57 13.9 54 12.2 89 89 S 13 20 29.70 1006 10 16 0.06 1.52
12:53 am 00:53 Cloudy with Light Rain 57 13.9 55 12.8 93 93 S 12 19 29.70 1006 4 6 0.12 3.05
1:04 am 01:04 Cloudy with Heavy Rain 57 13.9 55 12.8 93 93 S 10 17 29.70 1006 5 8 0.03 0.76
1:18 am 01:18 Cloudy with Light Rain 57 13.9 55 12.8 93 93 SW 10 17 29.70 1006 7 11 0.04 1.02
1:37 am 01:37 Cloudy 58 14.4 55 12.8 90 90 SSW 8 13 29.68 1005 10 16 0.04 1.02
1:53 am 01:53 Cloudy with Light Rain 58 14.4 56 13.3 93 93 S 14 22 29.67 1005 9 14 0.05 1.27
2:18 am 02:18 Cloudy 59 15 56 13.3 90 90 S 15 24 29.68 1005 10 16 0.01 0.13
2:45 am 02:45 Cloudy 60 15.6 56 13.3 86 86 S 12 19 29.66 1004 10 16 0.01 0.13
2:53 am 02:53 Cloudy 60 15.6 56 13.3 86 86 S 13 20 29.66 1005 10 16 0.01 0.13
3:42 am 03:42 Cloudy with Rain 58 14.4 56 13.3 93 93 S 10 17 29.67 1005 5 8 0.09 2.29
3:53 am 03:53 Cloudy with Rain 58 14.4 56 13.3 93 93 SSW 10 17 29.66 1004 4 6 0.13 3.30
4:09 am 04:09 Cloudy with Heavy Rain 58 14.4 55 12.8 90 90 WNW 9 15 29.70 1006 3 4 0.08 2.03
4:16 am 04:16 Cloudy with Heavy Rain 58 14.4 56 13.3 93 93 W 9 15 29.70 1006 2 2 0.14 3.56
4:26 am 04:26 Cloudy with Heavy Rain 57 13.9 56 13.3 96 96 W 7 11 29.70 1006 3 5 0.18 4.57
4:36 am 04:36 Cloudy with Light Rain 57 13.9 56 13.3 96 96 WSW 7 11 29.70 1006 8 13 0.19 4.83
4:53 am 04:53 Cloudy with Light Rain 57 13.9 56 13.3 96 96 WSW 7 11 29.69 1006 10 16 0.19 4.83
5:12 am 05:12 Cloudy with Light Rain 56 13.3 51 10.6 84 84 WNW 14 22 29.73 1007 10 16 0.01 0.25
5:44 am 05:44 Cloudy 50 10 46 7.8 86 86 WNW 21 33 29.78 1008 10 16 0.01 0.25
5:53 am 05:53 Cloudy 47 8.3 44 6.7 90 90 WNW 16 26 29.78 1009 8 13 0.01 0.25
6:34 am 06:34 Cloudy 42 5.6 38 3.3 85 85 WNW 15 24 29.88 1012 10 16 0.00 0.00
6:53 am 06:53 Cloudy 40 4.4 35 1.7 83 83 WNW 16 26 29.90 1013 10 16 0.00 0.00
7:19 am 07:19 Cloudy 38 3.3 32 0 79 79 W 12 19 29.97 1015 10 16 0.00 0.00
7:53 am 07:53 Cloudy 37 2.8 30 -1.1 75 75 WNW 12 19 29.99 1016 10 16 0.00 0.00
8:18 am 08:18 Partly Cloudy 36 2.2 28 -2.2 73 73 W 10 17 30.05 1018 10 16 0.00 0.00
8:53 am 08:53 Sunny 36 2.2 27 -2.8 69 69 W 12 19 30.05 1018 10 16 0.00 0.00
9:53 am 09:53 Sunny 35 1.7 22 -5.6 58 58 W 14 22 30.09 1019 10 16 0.00 0.00
10:53 am 10:53 Sunny 37 2.8 21 -6.1 52 52 W 15 24 30.12 1020 10 16 0.00 0.00
11:53 am 11:53 Sunny 38 3.3 21 -6.1 50 50 W 13 20 30.14 1021 10 16 0.00 0.00
12:53 pm 12:53 Sunny 40 4.4 21 -6.1 46 46 W 8 13 30.15 1021 10 16 0.00 0.00
1:53 pm 13:53 Sunny 41 5 18 -7.8 39 39 W 17 28 30.16 1021 10 16 0.00 0.00
2:53 pm 14:53 Sunny 41 5 16 -8.9 36 36 W 13 20 30.19 1022 10 16 0.00 0.00
3:53 pm 15:53 Sunny 41 5 19 -7.2 41 41 W 9 15 30.20 1023 10 16 0.00 0.00
4:53 pm 16:53 Sunny 39 3.9 18 -7.8 42 42 W 10 17 30.23 1024 10 16 0.00 0.00
5:53 pm 17:53 Clear 36 2.2 18 -7.8 47 47 W 7 11 30.27 1025 10 16 0.00 0.00
6:53 pm 18:53 Clear 35 1.7 18 -7.8 49 49 W 7 11 30.29 1026 10 16 0.00 0.00
7:53 pm 19:53 Clear 33 0.6 19 -7.2 56 56 W 8 13 30.32 1027 10 16 0.00 0.00
8:53 pm 20:53 Clear 33 0.6 20 -6.7 58 58 W 8 13 30.35 1028 10 16 0.00 0.00
9:53 pm 21:53 Clear 32 0 19 -7.2 58 58 W 5 7 30.37 1029 10 16 0.00 0.00
10:53 pm 22:53 Clear 31 -0.6 19 -7.2 61 61 W 6 9 30.38 1029 10 16 0.00 0.00
11:53 pm 23:53 Clear 30 -1.1 18 -7.8 60 60 W 5 7 30.40 1029 10 16 0.00 0.00

Powered by AerisWeather